[[{"header":{"parameterUnit":"m.s-1","parameterCategory":1,"la1":30.2991,"la2":30.254,"lo1":-89.0895,"lo2":-89.0444,"dy":0.0017,"dx":0.0017,"nx":28,"ny":28,"refTime":"2024-04-23T21:00:00:Z","depth":0,"parameterNumber":2,"parameterNumberName":"U-component_of_WINDS"},"data":[0,0,0,0,0,0,0,0,0,0,0,0,0,0,0,0,0,0,0,0,0,0,0,0,0,0,0,0,0,0,0,0,0,0,0,0,0,0,0,0,0,0,0,0,0,0,0,0,0,0,0,0,0,0,0,0,0,0,-1.703,-1.703,0,-1.6954,-1.6953,-1.6952,-1.6902,-1.6901,-1.6901,-1.6901,-1.6823,-1.6821,-1.682,0,0,0,0,0,0,0,0,0,0,0,0,0,-1.7133,-1.7131,-1.703,-1.7029,-1.7028,-1.6954,-1.6953,-1.6952,-1.6902,-1.6901,-1.6901,-1.69,-1.6824,-1.6822,-1.6819,0,0,0,0,0,0,0,0,0,0,0,0,0,-1.7076,-1.7131,-1.7031,-1.6994,-1.699,-1.6954,-1.6953,-1.6952,-1.6902,-1.6901,-1.6901,-1.69,-1.6824,-1.6822,-1.6819,-1.6813,0,0,-1.6811,-1.681,0,0,0,0,0,0,0,0,-1.7079,-1.7072,-1.7001,-1.6997,-1.6992,-1.6937,-1.6961,-1.6905,-1.6902,-1.6935,-1.6901,-1.69,-1.6861,-1.6856,-1.6842,-1.681,-1.6806,-1.6811,-1.6809,-1.6808,-1.6807,0,0,0,0,0,0,0,-1.7083,-1.7075,-1.7,-1.7,-1.6995,-1.6982,-1.6973,-1.695,-1.6902,-1.6932,-1.6929,-1.692,-1.6859,-1.6845,-1.684,-1.6805,-1.6811,-1.6809,-1.6807,-1.6806,-1.6763,-1.6764,0,0,0,0,0,0,-1.7093,-1.7078,-1.7003,-1.6998,-1.7035,-1.6981,-1.6971,-1.6955,-1.6902,-1.6894,-1.6921,-1.6918,-1.685,-1.6843,-1.6837,-1.6826,-1.6808,-1.6806,-1.6804,-1.6763,-1.6763,-1.6764,0,0,0,0,0,0,-1.7095,-1.7086,-1.7006,-1.7037,-1.7026,-1.6979,-1.6962,-1.6954,-1.694,-1.6893,-1.6885,-1.6915,-1.6849,-1.6841,-1.6819,-1.6823,-1.6805,-1.6802,-1.6762,-1.6763,-1.6763,-1.6805,0,0,0,0,0,0,-1.7098,-1.7087,-1.7085,-1.7037,-1.7024,-1.6989,-1.6962,-1.6953,-1.6935,-1.6931,-1.6886,-1.6878,-1.6848,-1.6824,-1.6817,-1.6819,-1.68,-1.6762,-1.6763,-1.6763,-1.6803,-1.6807,-1.681,0,0,0,0,0,-1.7102,-1.7099,-1.7085,-1.7076,-1.702,-1.6989,-1.6982,-1.6947,-1.6936,-1.6933,-1.6903,-1.688,-1.6824,-1.6822,-1.6814,-1.6815,-1.6761,-1.6762,-1.6763,-1.6801,-1.6806,-1.681,0,0,0,0,0,0,-1.7148,-1.7093,-1.7076,-1.7058,-1.7029,-1.6981,-1.6975,-1.6953,-1.6927,-1.6924,-1.6883,-1.6873,-1.6855,-1.6833,-1.6832,-1.6806,-1.679,-1.6789,-1.6821,-1.6825,-1.6829,-1.6834,-1.6798,0,0,0,0,0,-1.7157,-1.7136,-1.7089,-1.7078,-1.7064,-1.7022,-1.7008,-1.6984,-1.6952,-1.6939,-1.6908,-1.6878,-1.6854,-1.6839,-1.6814,-1.68,-1.6789,-1.6797,-1.68,-1.6804,-1.6803,-1.6794,-1.6796,-1.6767,-1.6767,-1.6767,0,0,-1.7173,-1.714,-1.713,-1.7086,-1.7061,-1.704,-1.7012,-1.6992,-1.6977,-1.6936,-1.6913,-1.689,-1.6854,-1.6836,-1.6826,-1.6817,-1.6809,-1.6805,-1.6808,-1.6805,-1.6795,-1.6798,-1.68,-1.6768,-1.6767,-1.6767,0,0,-1.7193,-1.7166,-1.7154,-1.7129,-1.709,-1.7063,-1.706,-1.7016,-1.6998,-1.6975,-1.6944,-1.6925,-1.6884,-1.686,-1.6842,-1.6853,-1.683,-1.6846,-1.6864,-1.6855,-1.6858,-1.686,-1.6863,-1.6865,-1.6846,-1.6846,-1.6846,0,-1.7218,-1.7186,-1.715,-1.7131,-1.7113,-1.7075,-1.7062,-1.704,-1.6996,-1.6984,-1.6974,-1.6922,-1.6895,-1.687,-1.6873,-1.686,-1.6855,-1.685,-1.686,-1.6862,-1.6863,-1.6866,-1.6867,-1.6848,-1.6848,-1.6848,-1.6847,0,-1.7219,-1.7198,-1.7192,-1.715,-1.7131,-1.7116,-1.7077,-1.7062,-1.704,-1.7014,-1.699,-1.6957,-1.6924,-1.6917,-1.6895,-1.6889,-1.6885,-1.6868,-1.685,-1.6869,-1.687,-1.6871,-1.6851,-1.685,-1.685,-1.6849,0,0,-1.7265,-1.7203,-1.7202,-1.7182,-1.7137,-1.712,-1.7103,-1.7071,-1.7059,-1.703,-1.7014,-1.698,-1.6965,-1.6945,-1.692,-1.6913,-1.6923,-1.6897,-1.6895,-1.6902,-1.6913,-1.6925,-1.6927,-1.6908,-1.6908,-1.6908,-1.6916,0,-1.7277,-1.7244,-1.7211,-1.7189,-1.7169,-1.7133,-1.7118,-1.7089,-1.7064,-1.7043,-1.7016,-1.6992,-1.6974,-1.6962,-1.6953,-1.6923,-1.6924,-1.6922,-1.6892,-1.6892,-1.6902,-1.6928,-1.6941,-1.695,-1.6917,-1.6917,-1.6917,0,-1.7287,-1.7259,-1.7236,-1.7192,-1.7183,-1.717,-1.7137,-1.7118,-1.7085,-1.7067,-1.7045,-1.7019,-1.6999,-1.6984,-1.6956,-1.6956,-1.6942,-1.6926,-1.6925,-1.692,-1.6905,-1.6923,-1.6952,-1.6953,-1.6918,-1.6918,-1.6918,0,-1.7322,-1.7279,-1.7259,-1.7243,-1.7193,-1.7184,-1.7163,-1.7129,-1.7112,-1.7084,-1.7072,-1.7043,-1.7027,-1.7005,-1.6971,-1.6964,-1.6947,-1.693,-1.6931,-1.6932,-1.6929,-1.6929,-1.6955,-1.6921,-1.6921,-1.6921,-1.6921,0,-1.7338,-1.7325,-1.7274,-1.7261,-1.7245,-1.7208,-1.7193,-1.7169,-1.7139,-1.7121,-1.7089,-1.7073,-1.7031,-1.701,-1.6984,-1.6965,-1.6958,-1.6943,-1.6936,-1.6945,-1.6947,-1.6935,-1.6933,-1.6922,-1.6922,-1.6922,-1.6922,0,-1.7374,-1.7339,-1.7315,-1.7269,-1.7257,-1.7248,-1.7208,-1.7195,-1.7169,-1.7147,-1.714,-1.7098,-1.7072,-1.7037,-1.7,-1.6983,-1.6967,-1.6956,-1.6978,-1.6973,-1.6977,-1.6977,-1.6995,-1.6995,-1.6963,-1.6963,-1.6964,0,-1.7386,-1.7375,-1.7328,-1.7314,-1.7293,-1.7271,-1.7253,-1.7216,-1.7199,-1.716,-1.7151,-1.7123,-1.7098,-1.7058,-1.7025,-1.6996,-1.6985,-1.6993,-1.698,-1.699,-1.6984,-1.6985,-1.6983,-1.6996,-1.6997,-1.6997,-1.6997,0,-1.7412,-1.7395,-1.737,-1.734,-1.7319,-1.7294,-1.7266,-1.7257,-1.7214,-1.7196,-1.7169,-1.715,-1.7112,-1.7084,-1.7051,-1.7029,-1.7006,-1.7002,-1.7001,-1.7009,-1.7022,-1.7014,-1.6985,-1.7001,-1.7001,-1.7001,-1.7,-1.7,-1.7435,-1.7423,-1.7388,-1.7362,-1.7338,-1.7313,-1.7298,-1.727,-1.7246,-1.7212,-1.7192,-1.7166,-1.7133,-1.7086,-1.7066,-1.7045,-1.7035,-1.7034,-1.7033,-1.7033,-1.7036,-1.7026,-1.7039,-1.7039,-1.7038,-1.7038,-1.7038,0,-1.7458,-1.7434,-1.741,-1.7373,-1.7352,-1.7332,-1.7301,-1.7285,-1.7262,-1.7233,-1.7209,-1.7178,-1.7151,-1.7116,-1.7086,-1.7076,-1.7064,-1.7069,-1.7069,-1.7064,-1.7046,-1.705,-1.7079,-1.7079,-1.7079,-1.7079,-1.7079,-1.7079,-1.7467,-1.7446,-1.7426,-1.7392,-1.7368,-1.7341,-1.7325,-1.7302,-1.7279,-1.7245,-1.7222,-1.72,-1.7168,-1.7136,-1.711,-1.7101,-1.7091,-1.7099,-1.7086,-1.7069,-1.7066,-1.7062,-1.7065,-1.7097,-1.7097,-1.7106,-1.7106,-1.7106]},{"header":{"parameterUnit":"m.s-1","parameterCategory":1,"la1":30.2991,"la2":30.254,"lo1":-89.0895,"lo2":-89.0444,"dy":0.0017,"dx":0.0017,"nx":28,"ny":28,"refTime":"2024-04-23T21:00:00:Z","depth":0,"parameterNumber":3,"parameterNumberName":"V-component_of_WINDS"},"data":[0,0,0,0,0,0,0,0,0,0,0,0,0,0,0,0,0,0,0,0,0,0,0,0,0,0,0,0,0,0,0,0,0,0,0,0,0,0,0,0,0,0,0,0,0,0,0,0,0,0,0,0,0,0,0,0,0,0,0.6396,0.6397,0,0.6525,0.6526,0.6528,0.6584,0.6584,0.6583,0.6583,0.672,0.6723,0.6727,0,0,0,0,0,0,0,0,0,0,0,0,0,0.6205,0.6208,0.6396,0.6398,0.6399,0.6524,0.6526,0.6528,0.6584,0.6584,0.6583,0.6583,0.6718,0.6723,0.6727,0,0,0,0,0,0,0,0,0,0,0,0,0,0.6306,0.6209,0.6396,0.6442,0.6447,0.6524,0.6526,0.6528,0.6584,0.6584,0.6583,0.6583,0.6717,0.6722,0.6728,0.677,0,0,0.6746,0.6748,0,0,0,0,0,0,0,0,0.6301,0.6313,0.6434,0.6439,0.6445,0.6538,0.6509,0.6609,0.6584,0.6532,0.6583,0.6583,0.666,0.667,0.6695,0.6776,0.6782,0.6746,0.675,0.6752,0.6754,0,0,0,0,0,0,0,0.6293,0.6308,0.6447,0.6435,0.6442,0.6459,0.6473,0.6528,0.6596,0.6537,0.6541,0.6555,0.6663,0.6689,0.6699,0.6784,0.6746,0.6751,0.6755,0.6757,0.6908,0.6909,0,0,0,0,0,0,0.6278,0.6302,0.6443,0.6451,0.637,0.6462,0.6478,0.6508,0.6596,0.6609,0.6555,0.6557,0.668,0.6692,0.6704,0.676,0.6752,0.6757,0.6761,0.6908,0.6908,0.6909,0,0,0,0,0,0,0.6274,0.629,0.6438,0.6378,0.6398,0.6466,0.65,0.6511,0.6538,0.661,0.6623,0.657,0.668,0.6696,0.6753,0.6765,0.676,0.6765,0.6907,0.6908,0.6909,0.6871,0,0,0,0,0,0,0.6268,0.6288,0.6303,0.6377,0.6401,0.6483,0.65,0.6514,0.6547,0.6551,0.6627,0.6639,0.6681,0.6744,0.6759,0.6773,0.677,0.6906,0.6907,0.6909,0.6872,0.6871,0.687,0,0,0,0,0,0.6261,0.6288,0.6303,0.632,0.642,0.6484,0.6497,0.6543,0.6547,0.6564,0.6611,0.6637,0.6761,0.675,0.6766,0.6783,0.6906,0.6907,0.6908,0.6872,0.6871,0.687,0,0,0,0,0,0,0.6214,0.6298,0.6317,0.6368,0.6418,0.6493,0.6515,0.654,0.6591,0.6593,0.665,0.6667,0.672,0.6757,0.6742,0.6829,0.6836,0.6841,0.6803,0.6802,0.6801,0.6791,0.6774,0,0,0,0,0,0.621,0.6252,0.6324,0.6363,0.6387,0.6446,0.6476,0.6507,0.6562,0.6584,0.6635,0.6689,0.674,0.6773,0.6824,0.6877,0.6896,0.6897,0.6896,0.6895,0.6899,0.6932,0.6934,0.6913,0.6913,0.6913,0,0,0.6201,0.6252,0.6276,0.6355,0.6397,0.6442,0.6464,0.651,0.6545,0.6592,0.6649,0.6688,0.6752,0.6808,0.6835,0.6841,0.6908,0.6897,0.6895,0.69,0.6933,0.6935,0.6937,0.6914,0.6914,0.6914,0,0,0.6209,0.6251,0.6288,0.6331,0.6394,0.6434,0.6443,0.6515,0.6542,0.66,0.6637,0.668,0.6767,0.6812,0.6846,0.6872,0.6899,0.6888,0.6883,0.6915,0.6916,0.6918,0.6929,0.6933,0.6891,0.6891,0.6891,0,0.6191,0.6258,0.6305,0.6349,0.6384,0.6427,0.6467,0.6507,0.6584,0.6608,0.6613,0.6725,0.6771,0.6839,0.6845,0.6871,0.6885,0.688,0.6912,0.6914,0.6917,0.6928,0.6932,0.6889,0.6889,0.689,0.689,0,0.6233,0.628,0.6303,0.6376,0.6413,0.6455,0.6511,0.6543,0.6572,0.6612,0.6672,0.6729,0.6793,0.6812,0.684,0.6885,0.6886,0.6901,0.6909,0.6916,0.6928,0.6933,0.6887,0.6888,0.6888,0.6888,0,0,0.6215,0.6314,0.6321,0.6356,0.643,0.6468,0.6513,0.6575,0.6603,0.6656,0.6697,0.677,0.6784,0.6823,0.6857,0.6885,0.6905,0.6897,0.6899,0.6898,0.696,0.6949,0.6953,0.6922,0.6923,0.6924,0.6955,0,0.6233,0.6314,0.6359,0.6422,0.6466,0.6509,0.6549,0.66,0.6639,0.6685,0.6729,0.6781,0.6795,0.6819,0.6848,0.6896,0.6918,0.6894,0.6963,0.6965,0.6946,0.6959,0.6948,0.6974,0.6959,0.696,0.6961,0,0.6266,0.6317,0.6384,0.6455,0.6475,0.651,0.6571,0.6613,0.6674,0.67,0.6744,0.6778,0.683,0.6834,0.6908,0.689,0.6921,0.695,0.6952,0.6961,0.6964,0.697,0.6983,0.6987,0.6968,0.6968,0.6967,0,0.6247,0.6333,0.6384,0.6413,0.6496,0.652,0.6556,0.6616,0.6651,0.6705,0.6729,0.6789,0.6823,0.6869,0.692,0.6918,0.6989,0.6997,0.7015,0.7014,0.7029,0.7027,0.7048,0.7046,0.7046,0.7046,0.7046,0,0.6264,0.6304,0.6377,0.6409,0.6456,0.6508,0.6554,0.6594,0.6647,0.6689,0.6731,0.677,0.6833,0.6881,0.6921,0.6978,0.6992,0.7017,0.7027,0.7014,0.7011,0.7036,0.7036,0.7047,0.7047,0.7047,0.7047,0,0.6251,0.6301,0.6361,0.6436,0.6455,0.6487,0.6552,0.6586,0.6627,0.6681,0.6696,0.6762,0.6821,0.6876,0.6954,0.6981,0.7038,0.7051,0.7018,0.7024,0.7039,0.7038,0.7078,0.7087,0.7077,0.7077,0.7077,0,0.6258,0.629,0.6368,0.6398,0.6434,0.6482,0.6518,0.6572,0.6608,0.668,0.6706,0.6768,0.682,0.6912,0.6968,0.7029,0.7045,0.7055,0.7054,0.704,0.7047,0.7045,0.7049,0.7054,0.7054,0.7053,0.7053,0,0.6267,0.6291,0.634,0.6399,0.6441,0.649,0.6541,0.6564,0.6628,0.6667,0.6727,0.6767,0.6848,0.6909,0.6977,0.7017,0.7047,0.7053,0.7061,0.7048,0.7028,0.7041,0.7017,0.7052,0.7052,0.7052,0.7052,0.7052,0.6266,0.6297,0.6357,0.6411,0.6455,0.6502,0.6538,0.6584,0.6635,0.6703,0.6733,0.6794,0.6856,0.695,0.699,0.704,0.7046,0.7057,0.706,0.7062,0.706,0.7019,0.7052,0.7052,0.7053,0.7053,0.7053,0,0.6279,0.6319,0.6369,0.6438,0.6482,0.6505,0.6563,0.6598,0.6651,0.6706,0.6756,0.6827,0.6887,0.6948,0.7012,0.7041,0.7057,0.7056,0.7055,0.7065,0.705,0.7038,0.7043,0.7043,0.7043,0.7043,0.7043,0.7043,0.629,0.6344,0.6375,0.6453,0.6494,0.6553,0.6585,0.663,0.6674,0.675,0.68,0.6839,0.6897,0.6966,0.7023,0.704,0.7063,0.7059,0.708,0.7065,0.7065,0.7066,0.7054,0.7063,0.7063,0.709,0.7091,0.7091]}]]